Starlink 11536

operational
NORAD ID: 62563 Int'l Des: 2025-006 Owner: SPXS Country: US Constellation: starlink
LEOCIRCULAR

Über Starlink 11536

Beschreibung wird geladen...

Live-Position

3D-Globus wird geladen...

Nächste Überflüge

Höhenverlauf

Altitude vs Time

uPlot chart will show altitude changes over time

Zweizeiliger Elementsatz

1 62563U 25006K 25349.88525728 .00260871 00000-0 19571-2 0 9992
2 62563 42.9998 284.9052 0003736 279.9239 80.1207 15.71033777 53428
Epoch: 15. Dez. 2025 • Age: 20 hours

Aktueller Status

Höhe 356.1 km
Geschwindigkeit 7.70 km/s
Subsatellitenpunkt 22.61°N, 82.33°E
Startdatum 10. Jan. 2025
Alter 0.9 years
Typ internet

Technische Details

Klassifizierung Payload
Masse 960.00 kg
Trockenmasse 910.00 kg
Gesamtmasse 960.00 kg
Länge 0.30 m
Durchmesser 4.10 m
Spannweite 29.00 m
Form Box + pan
Hersteller SPXS
Bus-Typ Starlink V2MD
Phasenstatus In Orbit
Besitzer/Staat SPXS/US

Große Konstellationen

Loading constellations...